Guam Agana, GU

9:09 PM ChST on October 17, 2019 (GMT +1000)
Guam International

Weather History for PGUM - August, 2019

Change the Weather History Date:

Friday, August 23, 2019

  Actual Average Record
Temperature  
Mean Temperature 84 °F -  
Max Temperature 90 °F 84 °F 91 °F (2018)
Min Temperature 78 °F 75 °F 73 °F (2005)
Cooling Degree Days 19    
Growing Degree Days 34 (Base 50)    
Moisture  
Dew Point 77 °F    
Average Humidity 80    
Maximum Humidity 90    
Minimum Humidity 62    
Precipitation  
Precipitation 0.53 in - - ()
Sea Level Pressure  
Sea Level Pressure 29.81 in    
Wind  
Wind Speed 11 mph ()    
Max Wind Speed 22 mph    
Max Gust Speed 30 mph    
Visibility 8.5 miles    
Events Rain    
Averages and records for this station are not official NWS values.
T = Trace of Precipitation, MM = Missing Value Source: Averaged Metar Reports

Daily Weather History Graph

Daily Weather History Graph

Search for Another Location

Airport or City:

Astronomy

Aug. 23, 2019 Rise Set
Actual Time 6:08 AM ChST 6:38 PM ChST
Civil Twilight 5:47 AM ChST 6:59 PM ChST
Nautical Twilight 5:21 AM ChST 7:25 PM ChST
Astronomical Twilight 4:55 AM ChST 7:51 PM ChST
Moon 11:51 PM ChST (8/23) 11:58 AM ChST (8/23)
Length of Visible Light 13h 12m
Length of Day
12h 29m
Waning Gibbous, 56% of the Moon is Illuminated
Aug 23
Waning Gibbous
Aug 24
Last Quarter
Aug 30
New
Sep 6
First Quarter
Sep 14
Full

Hourly Weather History & Observations

Time (ChST) Temp. Heat Index Dew Point Humidity Pressure Visibility Wind Dir Wind Speed Gust Speed Precip Events Conditions
12:54 AM 81.0 °F 87.9 °F 77.0 °F 88% 29.85 in 10.0 mi NNE 6.9 mph - 0.01 in   Partly Cloudy
1:54 AM 80.1 °F 85.8 °F 77.0 °F 90% 29.81 in 10.0 mi North 6.9 mph - N/A   Partly Cloudy
2:54 AM 81.0 °F 87.9 °F 77.0 °F 88% 29.80 in 10.0 mi NNE 9.2 mph - 0.00 in   Clear
3:54 AM 81.0 °F 87.9 °F 77.0 °F 88% 29.79 in 10.0 mi NNE 6.9 mph - N/A   Clear
4:54 AM 81.0 °F 87.3 °F 75.9 °F 85% 29.80 in 10.0 mi NNE 9.2 mph - N/A   Clear
5:54 AM 81.0 °F 87.3 °F 75.9 °F 85% 29.80 in 10.0 mi NNE 8.1 mph - N/A   Clear
6:54 AM 82.0 °F 89.4 °F 75.9 °F 82% 29.81 in 10.0 mi NE 10.4 mph - N/A   Clear
7:54 AM 82.9 °F 90.8 °F 75.9 °F 79% 29.83 in 10.0 mi NE 12.7 mph - N/A   Clear
8:54 AM 86.0 °F 96.9 °F 77.0 °F 74% 29.83 in 10.0 mi NE 17.3 mph 21.9 mph N/A   Mostly Cloudy
9:54 AM 89.1 °F 100.2 °F 75.9 °F 65% 29.84 in 10.0 mi ENE 18.4 mph - N/A   Clear
10:54 AM 89.1 °F 100.2 °F 75.9 °F 65% 29.82 in 10.0 mi ENE 15.0 mph - 0.00 in   Mostly Cloudy
11:54 AM 89.1 °F 99.1 °F 75.0 °F 63% 29.81 in 10.0 mi NE 16.1 mph - N/A   Mostly Cloudy
12:52 PM 89.6 °F 99.8 °F 75.2 °F 62% 29.81 in 10.0 mi NE 19.6 mph - 0.00 in Rain Light Rain
12:54 PM 87.1 °F 97.3 °F 75.9 °F 69% 29.79 in 10.0 mi NE 19.6 mph - 0.00 in Rain Light Rain
1:54 PM 89.1 °F 100.2 °F 75.9 °F 65% 29.78 in 10.0 mi NE 17.3 mph - 0.00 in Rain Light Rain
2:18 PM 89.1 °F 101.4 °F 77.0 °F 67% 29.79 in 9.0 mi NE 21.9 mph 25.3 mph 0.00 in Rain Light Rain
2:30 PM 89.1 °F 101.4 °F 77.0 °F 67% 29.78 in 10.0 mi NE 18.4 mph 24.2 mph 0.00 in Rain Light Rain
2:54 PM 90.0 °F 102.5 °F 77.0 °F 65% 29.75 in 10.0 mi NE 17.3 mph 24.2 mph 0.00 in Rain Light Rain
3:09 PM 86.0 °F 98.3 °F 78.1 °F 77% 29.78 in 2.5 mi ENE 19.6 mph 28.8 mph 0.00 in Rain Heavy Rain
3:17 PM 84.0 °F 97.3 °F 80.1 °F 88% 29.78 in 3.0 mi ENE 11.5 mph - 0.03 in Rain Light Rain
3:54 PM 87.1 °F 101.5 °F 79.0 °F 77% 29.75 in 10.0 mi NE 15.0 mph - 0.03 in   Mostly Cloudy
4:03 PM 86.0 °F 98.3 °F 78.1 °F 77% 29.77 in 10.0 mi NE 18.4 mph - N/A   Mostly Cloudy
4:15 PM 86.0 °F 96.9 °F 77.0 °F 74% 29.78 in 10.0 mi ENE 13.8 mph - N/A   Mostly Cloudy
4:46 PM 82.9 °F 92.8 °F 78.1 °F 85% 29.79 in 10.0 mi East 8.1 mph - 0.00 in   Mostly Cloudy
4:54 PM 84.0 °F 96.0 °F 79.0 °F 85% 29.77 in 10.0 mi ENE 9.2 mph - 0.00 in   Mostly Cloudy
5:50 PM 84.2 °F 94.1 °F 77.0 °F 79% 29.80 in 10.0 mi NE 12.7 mph - N/A   Mostly Cloudy
5:54 PM 84.9 °F 96.6 °F 78.1 °F 80% 29.78 in 10.0 mi ENE 8.1 mph - N/A   Mostly Cloudy
6:13 PM 84.0 °F 92.6 °F 75.9 °F 76% 29.81 in 10.0 mi ENE 15.0 mph - 0.00 in Rain Light Rain
6:48 PM 78.8 °F - 75.2 °F 89% 29.82 in 1.8 mi ENE 13.8 mph 25.3 mph 0.03 in Rain Heavy Rain
6:54 PM 79.0 °F - 75.9 °F 90% 29.80 in 5.0 mi ENE 9.2 mph 25.3 mph 0.06 in Rain Heavy Rain
7:40 PM 81.0 °F 87.9 °F 77.0 °F 88% 29.84 in 1.8 mi East 13.8 mph - 0.04 in Rain Heavy Rain
7:50 PM 80.6 °F 87.1 °F 77.0 °F 89% 29.84 in 3.0 mi East 19.6 mph 24.2 mph 0.22 in Rain Light Rain
7:54 PM 81.0 °F 87.9 °F 77.0 °F 88% 29.82 in 9.0 mi East 11.5 mph 24.2 mph 0.23 in Rain Light Rain
8:54 PM 80.1 °F 85.4 °F 75.9 °F 87% 29.83 in 10.0 mi NNE 5.8 mph - 0.00 in   Partly Cloudy
9:54 PM 81.0 °F 87.9 °F 77.0 °F 88% 29.84 in 8.0 mi NE 4.6 mph - 0.00 in Rain Light Rain
10:54 PM 78.1 °F - 73.9 °F 87% 29.82 in 10.0 mi ENE 12.7 mph - 0.12 in Rain Light Rain
11:25 PM 78.1 °F - 73.9 °F 87% 29.85 in 2.5 mi ENE 13.8 mph 29.9 mph 0.07 in Rain Heavy Rain
11:33 PM 79.0 °F - 75.0 °F 88% 29.85 in 7.0 mi ENE 10.4 mph - 0.08 in Rain Light Rain
11:54 PM 80.1 °F 85.4 °F 75.9 °F 87% 29.82 in 10.0 mi East 5.8 mph - 0.08 in   Partly Cloudy